Regional Weather Roundup
Issued by NWS

Home | Current Version | Previous Version | Graphics & Text | Print | Product List | Glossary On
Versions: 1 2 3 4 5 6 7 8 9 10 11 12 13 14 15 16 17 18 19 20 21 22 23 24 25 26 27 28 29 30 31 32 33 34 35 36 37 38 39 40 41 42 43 44 45 46 47 48 49 50
000
ASUS43 KFSD 232210
RWRSD

WEATHER ROUNDUP FOR SOUTH DAKOTA
NATIONAL WEATHER SERVICE SIOUX FALLS SD
500 PM CDT TUE SEP 23 2014

NOTE: "FAIR" INDICATES FEW OR NO CLOUDS BELOW 12,000 FEET WITH NO
SIGNIFICANT WEATHER AND/OR OBSTRUCTIONS TO VISIBILITY.


SDZ001>005-009-010-012>017-232300-
NORTHWEST AND NORTH CENTRAL SOUTH DAKOTA

CITY           SKY/WX    TMP DP  RH WIND       PRES   REMARKS
BUFFALO          N/A     82  51  34 NW10      29.83S
FAITH            N/A     75  57  53 S5        29.89F
MOBRIDGE       CLOUDY    63  58  83 SE13      29.91S
$$

SDZ012>016-024>037-041>051-057-063-072>074-232300-
SOUTHWEST AND SOUTH CENTRAL SOUTH DAKOTA

CITY           SKY/WX    TMP DP  RH WIND       PRES   REMARKS
RAPID CTY ARPT MOSUNNY   80  52  37 CALM      29.92S
PIERRE         MOSUNNY   71  57  61 SE16      29.88S
CUSTER         CLOUDY    72  47  40 VRB6      30.06S
ELLSWORTH AFB  MOSUNNY   80  54  39 NE6       29.92S
PHILIP         MOSUNNY   78  57  48 N6        29.87S
PINE RIDGE     MOSUNNY   77  52  41 W9        29.94S
WINNER         FAIR      71  59  65 SE17      29.89S
$$

SDZ004>011-016>023-039-040-232300-
NORTHEAST SOUTH DAKOTA

CITY           SKY/WX    TMP DP  RH WIND       PRES   REMARKS
ABERDEEN       LGT RAIN  58  55  90 SE13      29.99S FOG
WATERTOWN      LGT RAIN  58  56  93 SE14      30.02F
SISSETON         N/A     61  57  87 S14G21    30.03F
$$

SDZ017-020-022-023-036>040-048>070-232300-
SOUTHEAST SOUTH DAKOTA

CITY           SKY/WX    TMP DP  RH WIND       PRES   REMARKS
SIOUX FALLS    CLOUDY    62  56  80 S20G28    30.04S
HURON          CLOUDY    58  56  93 SE10      29.98S FOG
CHAMBERLAIN    PTSUNNY   66  58  74 SE17      29.92S
MITCHELL       CLOUDY    61  58  90 SE14G20   29.99S
YANKTON        CLOUDY    63  57  82 SE18      30.02S
$$

ABBREVIATIONS USED IN REMARKS
   TC - TEMPERATURE IN CELSIUS
  WCI - WIND CHILL INDEX
   HX - HEAT INDEX
  VSB - VISIBILITY




USA.gov is the U.S. government's official web portal to all federal, state and local government web resources and services.